Regional Weather Roundup
Issued by NWS

Home | Current Version | Previous Version | Text Only | Print | Product List | Glossary Off
Versions: 1 2 3 4 5 6 7 8 9 10 11 12 13 14 15 16 17 18 19 20 21 22 23 24 25 26 27 28 29 30 31 32 33 34 35 36 37 38 39 40 41 42 43 44 45 46 47 48 49 50

000
ASUS43 KBIS 030510
RWRND

NORTH DAKOTA REGIONAL WEATHER ROUNDUP
NATIONAL WEATHER SERVICE BISMARCK ND
1100 PM CST MON MAR 02 2015

NOTE: "FAIR" INDICATES FEW OR NO CLOUDS BELOW 12,000 FEET WITH NO
SIGNIFICANT WEATHER AND/OR OBSTRUCTIONS TO VISIBILITY.


NDZ001>003-009>011-017-030600-
NORTHWEST NORTH DAKOTA

CITY           SKY/WX    TMP DP  RH WIND       PRES   REMARKS
WILLISTON      FLURRIES  17   9  70 N16G25    29.95R WCI   2
MINOT          FLURRIES  17  10  74 NW26G37   29.81S WCI  -2
MINOT AFB      FAIR      16  14  93 NW26      29.81R WCI  -3
$$

NDZ018>021-031>035-040>046-030600-
SOUTHWEST NORTH DAKOTA

CITY           SKY/WX    TMP DP  RH WIND       PRES   REMARKS
BISMARCK       FAIR      28  20  71 NW24G31   29.78R WCI  14
DICKINSON      MOCLDY    18  11  74 N22G28    29.82R WCI   1
GARRISON         N/A     17  11  77 NW33G39   29.80R WCI  -4
HETTINGER ARPT FAIR      24  18  77 N29G36    29.78R WCI   7
$$

NDZ004>008-012>016-024-026-027-054-030600-
NORTHEAST NORTH DAKOTA

CITY           SKY/WX    TMP DP  RH WIND       PRES   REMARKS
GRAND FORKS    MOCLDY    24  18  77 S18       29.77F WCI  10
GRND FRKS AFB  FAIR      25  18  74 S15       29.75F WCI  12
DEVILS LAKE    FAIR      21  16  79 SW10      29.72S WCI  10
$$

NDZ022-023-025-028>030-036>039-047>053-030600-
SOUTHEAST NORTH DAKOTA

CITY           SKY/WX    TMP DP  RH WIND       PRES   REMARKS
FARGO          FAIR      27  18  69 S24G33    29.81F WCI  12
JAMESTOWN      FAIR      26  19  74 S14       29.72F WCI  14
$$




USA.gov is the U.S. government's official web portal to all federal, state and local government web resources and services.